Location: Toronto
(43.6672°N, 79.4170°W)
Time: 23:55:09
(UTC-05:00)

Daily predictions for brighter satellites

Satellite Brightness Start Highest point End
(mag) Time Altitude Azimuth Time Altitude Azimuth Time Altitude Azimuth
NOSS 3-2 (C) 3.5 18:17:16 10° SSW 18:23:11 86° SE 18:29:49 10° NE
Envisat 4.4 18:20:52 10° E 18:24:04 17° ENE 18:27:17 10° NNE
Cosmos 2219 Rocket 4.1 18:20:21 10° NW 18:25:29 36° WSW 18:30:35 10° S
SL-8 R/B 3.9 18:22:31 10° SW 18:27:13 60° SSE 18:31:56 10° ENE
DNEPR-1 R/B 3.6 18:23:35 10° SW 18:27:46 79° NW 18:32:10 10° NNE
MTI 3.9 18:25:03 10° NNE 18:28:10 50° E 18:31:17 10° S
ALOS 2.3 18:25:26 10° SSE 18:30:07 89° E 18:34:50 10° NNW
Resurs 01 Rocket 3.6 18:30:05 10° ENE 18:30:33 10° ENE 18:31:00 10° NE
Cosmos 44 3.4 18:27:23 10° NNW 18:32:24 71° NE 18:37:38 10° SE
MONITOR-E 4.2 18:33:27 10° S 18:36:28 83° WSW 18:39:31 10° NNW
CZ-2C R/B 4.2 18:34:14 10° N 18:38:39 63° WNW 18:43:01 10° SSW
FENGYUN 3A 3.8 18:33:51 10° SSE 18:39:15 81° WSW 18:44:43 10° NNW
Cosmos 2233 Rocket 4.4 18:35:08 10° NNW 18:41:23 71° W 18:47:33 10° S
Cosmos 2237 Rocket 3.2 18:37:21 10° NW 18:42:47 52° WSW 18:48:12 10° S
Cosmos 2227 Rocket 2.6 18:37:13 10° SSW 18:42:50 69° WNW 18:48:29 10° NNE
Cosmos 1378 Rocket 3.8 18:39:30 10° N 18:43:46 45° ENE 18:48:01 10° SSE
CENTAUR R/B 2.7 18:39:09 10° SSW 18:44:55 54° ESE 18:51:31 10° NE
SL-16 R/B 2.2 18:41:55 10° NNW 18:47:37 74° ENE 18:53:15 10° SSE
USA 267 4.3 18:42:45 10° ENE 18:48:21 31° NNE 18:53:56 10° NW
ATLAS CENTAUR R/B 3.6 18:47:13 10° NNE 18:48:25 11° NE 18:49:38 10° NE
Cosmos 1633 2.5 18:49:36 10° S 18:53:06 59° E 18:56:39 10° NNE
Lacrosse 5 4.2 18:49:42 10° WNW 18:53:49 25° WSW 18:57:55 10° S
Cosmos 1782 Rocket 4.3 18:50:01 10° SSE 18:53:54 31° E 18:57:48 10° NNE
SJ-6B 3.5 18:51:33 10° SE 18:54:55 31° ENE 18:58:21 10° N
USA 186 3.8 18:56:27 13° NE 18:56:27 13° NE 18:57:32 10° NNE
Cosmos 2297 Rocket 2.7 18:51:00 10° SW 18:56:36 63° WNW 19:02:14 10° NNE
H-2A R/B 2.7 18:53:39 10° SSE 18:57:34 79° ENE 19:01:29 10° N
Sich 1 Rocket 3.8 18:55:16 10° SSE 18:59:35 47° E 19:03:53 10° NNE
COSMO-SKYMED 1 3.8 18:56:32 10° N 19:00:42 45° WNW 19:04:51 10° SW
Cosmos 1464 Rocket 3.9 18:54:43 10° N 19:00:51 73° E 19:06:59 10° SSE
ERS-2 2.1 18:59:49 10° SSE 19:03:28 65° ENE 19:07:08 10° N
Cosmos 1603 4.2 19:00:51 10° N 19:06:05 37° NE 19:10:05 16° ESE
BREEZE-M R/B 3.2 19:05:21 10° WNW 19:07:43 77° NNE 19:12:05 16° ESE
Okean 1 3.3 19:04:07 10° N 19:08:04 56° E 19:11:58 10° SSE
Meteor 1-14 Rocket 4.3 19:02:33 10° S 19:08:21 88° W 19:14:19 10° N
Iridium 4 Rocket 3.1 19:03:45 10° N 19:08:38 69° E 19:13:05 10° S
Meteor 1-20 Rocket 4.2 19:03:19 10° S 19:09:00 80° E 19:14:50 10° NNE
Cosmos 158 Rocket 3.8 19:06:06 10° SSW 19:10:59 86° WNW 19:15:53 10° NNE
Cosmos 1452 Rocket 4.1 19:06:03 10° NNW 19:11:15 62° WSW 19:16:24 10° S
Cosmos 1812 3.9 19:09:35 10° NNW 19:13:19 46° W 19:17:01 10° SSW
BREEZE-M DEB (TANK) 1.6 19:11:14 10° WNW 19:13:35 61° NNE 19:14:37 32° E
Okean 2 Rocket 3.7 19:10:23 10° SSE 19:14:14 31° E 19:18:07 10° NNE
ATLAS 3B R/B 4.4 19:09:21 10° W 19:15:30 30° NW 19:21:28 10° NNE
CZ-2D R/B 3.5 19:13:25 10° SSE 19:17:10 47° ENE 19:20:56 10° N
Cosmos 1048 Rocket 3.9 19:11:59 10° S 19:17:18 73° ESE 19:22:34 10° NNE
SPOT 3 Rocket 4.5 19:13:58 10° S 19:19:01 52° W 19:24:08 10° NNW
Cosmos 2263 Rocket 3.9 19:21:57 10° SE 19:23:05 14° SE 19:23:05 14° SE
Cosmos 1602 3.7 19:24:08 10° S 19:27:57 56° E 19:31:48 10° NNE
OAO 2 Rocket 4.5 19:23:50 10° SW 19:28:04 29° S 19:29:58 22° SE
Cosmos 921 Rocket 3.1 19:27:04 10° NNW 19:31:35 82° WSW 19:36:04 10° SSE
Cosmos 1908 Rocket 4.3 19:29:19 10° SSW 19:33:43 56° W 19:38:08 10° N
Cosmos 2034 Rocket 4.1 19:30:35 10° N 19:37:00 82° W 19:43:20 10° S
Tiangong 2 4.0 19:39:28 10° SW 19:40:39 12° SW 19:41:50 10° SSW
Cosmos 2346 Rocket 4.4 19:34:49 10° S 19:40:52 58° E 19:46:54 10° NNE
Meteor 2-4 Rocket 3.8 19:36:25 10° N 19:42:07 54° ENE 19:45:18 25° SE
Meteor 1-19 Rocket 4.0 19:37:12 10° N 19:42:45 77° E 19:48:18 10° SSE
Cosmos 1437 Rocket 3.1 19:41:43 10° SSW 19:45:45 70° WNW 19:49:52 10° N
Cosmos 2227 4.1 19:41:09 10° SSW 19:46:50 71° ESE 19:52:31 10° NNE
ARGOS Delta rocket 3.7 19:42:18 10° NNE 19:47:12 83° E 19:51:48 10° S
Meteor 1-11 Rocket 3.7 19:43:42 10° S 19:49:09 58° E 19:54:44 10° NNE
Cosmos 1634 Rocket 4.0 19:43:22 10° N 19:49:23 52° ENE 19:52:05 31° SE
Resurs 1-3 3.5 19:51:45 59° E 19:52:07 62° ENE 19:56:28 10° N
Cosmos 1816 Rocket 4.4 19:46:40 10° S 19:53:02 85° E 19:59:26 10° N
SeaSat 1 2.4 19:50:15 24° SSE 19:53:15 84° WSW 19:58:13 10° NNW
Gbstr 26 Del rocket 3.4 19:52:28 10° SW 19:55:12 41° S 19:55:12 41° S
USA 215 3.1 19:52:59 28° ENE 19:56:45 76° SE 20:03:18 10° SW
Cosmos 1975 Rocket 3.7 19:54:58 10° NNW 19:59:20 55° W 20:03:40 10° S
Envisat 3.3 19:57:30 10° S 20:02:33 67° WSW 20:07:37 10° NNW
Cosmos 1939 Rocket 3.3 20:04:12 54° N 20:04:12 54° N 20:07:30 10° N
COSMOS 2455 2.8 19:59:34 10° S 20:05:23 55° ESE 20:05:36 54° ESE
Resurs 01 Rocket 1.5 20:06:02 80° SSE 20:06:17 87° ENE 20:10:43 10° NNW
Thor Agena Rocket 3.9 20:03:28 10° N 20:08:31 63° WNW 20:13:28 10° SSW
CZ-4C R/B 3.1 20:02:14 10° NNW 20:09:07 53° NE 20:10:42 46° E
SL-8 R/B 4.0 20:05:10 10° W 20:09:52 55° NNW 20:10:22 52° NNE
Cosmos 1943 3.1 20:07:15 10° NNW 20:12:54 68° ENE 20:13:11 67° E
BREEZE-M DEB (TANK) 3.7 20:10:52 10° SW 20:14:17 70° SE 20:15:24 56° E
Cosmos 1110 Rocket 4.2 20:12:12 10° NNW 20:17:28 68° WSW 20:19:14 41° S
Cosmos 494 Rocket 3.9 20:12:34 10° SSW 20:17:48 88° WNW 20:19:03 53° NNE
USA 186 4.4 20:27:59 19° NW 20:27:59 19° NW 20:29:12 10° NNW
ATLAS CENTAUR R/B 3.0 20:24:02 10° NNW 20:26:07 28° NNW 20:26:07 28° NNW
USA 267 3.2 20:30:04 60° ENE 20:30:38 63° NNE 20:37:04 10° NW
Meteor 1-23 Rocket 4.2 20:25:07 10° N 20:30:50 84° NNE 20:30:50 84° NNE
CENTAUR R/B 3.9 20:30:08 10° WSW 20:35:52 37° NW 20:42:04 11° NNE
H-2A R/B 4.1 20:40:37 17° N 20:40:37 17° N 20:42:03 10° N
Spot 2 Rocket 4.4 20:52:33 44° W 20:52:33 44° W 20:57:20 10° NNW
Cosmos 2263 Rocket 4.3 21:03:49 10° SW 21:04:56 16° SW 21:04:56 16° SW
USA 215 4.2 21:40:20 41° NW 21:40:20 41° NW 21:45:35 10° W
CZ-4C R/B 4.0 21:50:56 10° NW 21:55:55 37° W 21:55:55 37° W
